• In Belarus
  • List of Countries
  • For 7 days
  • Water Temperature
  • Satellite Maps
  • Weather Map
  • Weather Widgets
  • user-avatar
    Login

    Hourly Weather Canillo

    Today, 15 August, Wednesday

    Time Temperature Precipitation Wind Pressure Humidity
    00:00 +8°C° 0 mm 2 mps 622 mmHg 76%
    01:00 +8°C° 0 mm 2 mps 622 mmHg 78%
    02:00 +8°C° 0 mm 2 mps 621 mmHg 79%
    03:00 +7°C° 0 mm 2 mps 621 mmHg 80%
    04:00 +8°C° 0 mm 2 mps 621 mmHg 79%
    05:00 +8°C° 0 mm 2 mps 622 mmHg 78%
    06:00 +8°C° 0 mm 2 mps 622 mmHg 77%
    07:00 +12°C° 0 mm 2 mps 623 mmHg 66%
    08:00 +15°C° 0 mm 2 mps 624 mmHg 56%
    09:00 +19°C° 0 mm 1 mps 625 mmHg 45%
    10:00 +20°C° 0 mm 1 mps 625 mmHg 42%
    11:00 +21°C° 0 mm 1 mps 626 mmHg 39%
    12:00 +23°C° 0 mm 1 mps 626 mmHg 36%
    13:00 +23°C° 0 mm 1 mps 626 mmHg 37%
    14:00 +23°C° 0 mm 2 mps 625 mmHg 38%
    15:00 +23°C° 0 mm 2 mps 625 mmHg 40%
    16:00 +20°C° 0 mm 2 mps 624 mmHg 47%
    17:00 +20°C° 0 mm 1 mps 624 mmHg 54%
    18:00 +19°C° 0 mm 1 mps 623 mmHg 61%
    19:00 +16°C° 0 mm 1 mps 623 mmHg 66%
    20:00 +14°C° 0 mm 1 mps 622 mmHg 72%
    21:00 +12°C° 0 mm 1 mps 622 mmHg 78%
    22:00 +12°C° 0 mm 1 mps 621 mmHg 79%
    23:00 +12°C° 0 mm 1 mps 621 mmHg 80%

    Tomorrow, 16 August, Thursday

    Time Temperature Precipitation Wind Pressure Humidity
    00:00 +12°C° 0 mm 1 mps 621 mmHg 81%
    01:00 +11°C° 0 mm 1 mps 621 mmHg 81%
    02:00 +11°C° 0 mm 1 mps 621 mmHg 81%
    03:00 +11°C° 0 mm 1 mps 620 mmHg 81%
    04:00 +12°C° 0 mm 1 mps 621 mmHg 80%
    05:00 +12°C° 0 mm 1 mps 621 mmHg 79%
    06:00 +12°C° 0 mm 1 mps 621 mmHg 79%
    07:00 +15°C° 0 mm 1 mps 622 mmHg 70%
    08:00 +18°C° 0 mm 1 mps 623 mmHg 61%
    09:00 +21°C° 0 mm 1 mps 624 mmHg 52%
    10:00 +21°C° 0.6 mm 1 mps 624 mmHg 53%
    11:00 +21°C° 0.6 mm 1 mps 624 mmHg 53%
    12:00 +21°C° 0.6 mm 1 mps 623 mmHg 54%
    13:00 +21°C° 1 mm 1 mps 623 mmHg 56%
    14:00 +21°C° 1 mm 1 mps 623 mmHg 57%
    15:00 +20°C° 1 mm 1 mps 623 mmHg 58%
    16:00 +19°C° 1.3 mm 1 mps 622 mmHg 64%
    17:00 +18°C° 1.3 mm 1 mps 622 mmHg 70%
    18:00 +16°C° 1.3 mm 1 mps 621 mmHg 76%
    19:00 +15°C° 0.9 mm 1 mps 621 mmHg 80%
    20:00 +14°C° 0.9 mm 1 mps 621 mmHg 84%
    21:00 +13°C° 0.9 mm 2 mps 621 mmHg 88%
    22:00 +13°C° 0.8 mm 2 mps 621 mmHg 89%
    23:00 +12°C° 0.8 mm 2 mps 621 mmHg 90%

    Day after tomorrow, 17 August, Friday

    Time Temperature Precipitation Wind Pressure Humidity
    00:00 +12°C° 0.8 mm 2 mps 621 mmHg 91%
    01:00 +12°C° 0.7 mm 2 mps 621 mmHg 91%
    02:00 +12°C° 0.7 mm 2 mps 621 mmHg 92%
    03:00 +12°C° 0.7 mm 2 mps 621 mmHg 92%
    04:00 +12°C° 0.3 mm 2 mps 621 mmHg 92%
    05:00 +12°C° 0.3 mm 2 mps 621 mmHg 91%
    06:00 +10°C° 0.3 mm 2 mps 621 mmHg 91%
    07:00 +12°C° 0.2 mm 2 mps 622 mmHg 88%
    08:00 +13°C° 0.2 mm 2 mps 622 mmHg 85%
    09:00 +14°C° 0.2 mm 2 mps 623 mmHg 82%
    10:00 +14°C° 0.4 mm 2 mps 623 mmHg 78%
    11:00 +15°C° 0.4 mm 2 mps 624 mmHg 73%
    12:00 +16°C° 0.4 mm 2 mps 624 mmHg 69%
    13:00 +16°C° 0.4 mm 2 mps 624 mmHg 68%
    14:00 +16°C° 0.4 mm 2 mps 624 mmHg 68%
    15:00 +16°C° 0.4 mm 2 mps 623 mmHg 67%
    16:00 +15°C° 0.2 mm 2 mps 623 mmHg 71%
    17:00 +15°C° 0.2 mm 2 mps 623 mmHg 76%
    18:00 +14°C° 0.2 mm 2 mps 623 mmHg 80%
    19:00 +13°C° 0.1 mm 2 mps 623 mmHg 83%
    20:00 +12°C° 0.1 mm 2 mps 623 mmHg 86%
    21:00 +9°C° 0.1 mm 2 mps 623 mmHg 89%
    22:00 +9°C° 0 mm 2 mps 623 mmHg 89%
    23:00 +8°C° 0 mm 2 mps 622 mmHg 89%

    18 August, Saturday

    Time Temperature Precipitation Wind Pressure Humidity
    00:00 +8°C° 0 mm 2 mps 622 mmHg 89%
    01:00 +7°C° 0 mm 2 mps 622 mmHg 88%
    02:00 +7°C° 0 mm 2 mps 622 mmHg 87%
    03:00 +7°C° 0 mm 2 mps 621 mmHg 86%
    04:00 +7°C° 0 mm 2 mps 622 mmHg 83%
    05:00 +7°C° 0 mm 2 mps 622 mmHg 80%
    06:00 +7°C° 0 mm 2 mps 622 mmHg 77%
    07:00 +9°C° 0 mm 2 mps 623 mmHg 66%
    08:00 +13°C° 0 mm 2 mps 624 mmHg 54%
    09:00 +16°C° 0 mm 2 mps 626 mmHg 42%
    10:00 +17°C° 0 mm 2 mps 626 mmHg 39%
    11:00 +18°C° 0 mm 2 mps 626 mmHg 36%
    12:00 +19°C° 0 mm 2 mps 626 mmHg 34%
    13:00 +19°C° 0 mm 2 mps 626 mmHg 34%
    14:00 +19°C° 0 mm 2 mps 626 mmHg 35%
    15:00 +19°C° 0 mm 2 mps 626 mmHg 36%
    16:00 +18°C° 0 mm 2 mps 625 mmHg 43%
    17:00 +17°C° 0 mm 2 mps 625 mmHg 49%
    18:00 +15°C° 0 mm 2 mps 624 mmHg 56%
    19:00 +13°C° 0 mm 2 mps 624 mmHg 61%
    20:00 +12°C° 0 mm 2 mps 623 mmHg 65%
    21:00 +9°C° 0 mm 2 mps 623 mmHg 69%
    22:00 +9°C° 0 mm 2 mps 623 mmHg 67%
    23:00 +8°C° 0 mm 2 mps 623 mmHg 64%

    19 August, Sunday

    Time Temperature Precipitation Wind Pressure Humidity
    00:00 +8°C° 0 mm 2 mps 623 mmHg 62%
    01:00 +8°C° 0 mm 2 mps 623 mmHg 59%
    02:00 +8°C° 0 mm 2 mps 623 mmHg 56%
    03:00 +8°C° 0 mm 2 mps 623 mmHg 54%
    04:00 +8°C° 0 mm 2 mps 623 mmHg 54%
    05:00 +8°C° 0 mm 2 mps 623 mmHg 55%
    06:00 +8°C° 0 mm 2 mps 623 mmHg 55%
    07:00 +12°C° 0 mm 2 mps 624 mmHg 50%
    08:00 +15°C° 0 mm 2 mps 625 mmHg 44%
    09:00 +17°C° 0 mm 2 mps 627 mmHg 38%
    10:00 +19°C° 0 mm 2 mps 627 mmHg 37%
    11:00 +20°C° 0 mm 2 mps 627 mmHg 35%
    12:00 +21°C° 0 mm 2 mps 628 mmHg 33%
    13:00 +21°C° 0 mm 2 mps 627 mmHg 34%
    14:00 +21°C° 0 mm 2 mps 627 mmHg 35%
    15:00 +21°C° 0 mm 2 mps 627 mmHg 36%
    16:00 +20°C° 0 mm 2 mps 626 mmHg 43%
    17:00 +18°C° 0 mm 2 mps 626 mmHg 50%
    18:00 +17°C° 0 mm 2 mps 625 mmHg 57%
    19:00 +15°C° 0 mm 2 mps 625 mmHg 62%
    20:00 +13°C° 0 mm 2 mps 625 mmHg 68%
    21:00 +12°C° 0 mm 2 mps 624 mmHg 73%
    22:00 +10°C° 0 mm 2 mps 624 mmHg 72%
    23:00 +10°C° 0 mm 2 mps 624 mmHg 71%

    20 August, Monday

    Time Temperature Precipitation Wind Pressure Humidity
    00:00 +10°C° 0 mm 2 mps 623 mmHg 71%
    01:00 +9°C° 0 mm 2 mps 623 mmHg 69%
    02:00 +9°C° 0 mm 2 mps 623 mmHg 67%
    03:00 +9°C° 0 mm 2 mps 623 mmHg 65%
    04:00 +9°C° 0 mm 2 mps 623 mmHg 65%
    05:00 +9°C° 0 mm 2 mps 623 mmHg 65%
    06:00 +10°C° 0 mm 2 mps 623 mmHg 65%
    07:00 +13°C° 0 mm 2 mps 624 mmHg 58%
    08:00 +16°C° 0 mm 2 mps 626 mmHg 51%
    09:00 +19°C° 0 mm 2 mps 627 mmHg 43%
    10:00 +20°C° 0 mm 2 mps 627 mmHg 41%
    11:00 +21°C° 0 mm 2 mps 627 mmHg 39%
    12:00 +23°C° 0 mm 2 mps 627 mmHg 37%
    13:00 +23°C° 0 mm 2 mps 627 mmHg 38%
    14:00 +23°C° 0 mm 2 mps 627 mmHg 38%
    15:00 +23°C° 0 mm 2 mps 626 mmHg 39%
    16:00 +21°C° 0 mm 2 mps 626 mmHg 46%
    17:00 +20°C° 0 mm 1 mps 625 mmHg 53%
    18:00 +19°C° 0 mm 1 mps 625 mmHg 60%
    19:00 +16°C° 0 mm 1 mps 624 mmHg 65%
    20:00 +15°C° 0 mm 1 mps 624 mmHg 69%
    21:00 +13°C° 0 mm 2 mps 624 mmHg 74%
    22:00 +13°C° 0 mm 1 mps 623 mmHg 74%
    23:00 +13°C° 0 mm 1 mps 623 mmHg 75%
    Show more